Location: Denton Manor
(38.5571°N, 75.1052°W)
Time: 07:05:23
(UTC+00:00)

Envisat - Visible Passes

Search period start: 05 October 2024 00:00
Search period end: 15 October 2024 00:00
Orbit: 762 x 764 km, 98.3° (Epoch: 04 October)

Date Brightness Start Highest point End Pass type
(mag) Time Alt. Az. Time Alt. Az. Time Alt. Az.
05 Oct 4.6 08:14:35 10° N 08:16:53 28° N 08:16:53 28° N visible
06 Oct 5.3 07:37:21 10° NNE 07:38:51 19° NE 07:38:51 19° NE visible
06 Oct 4.7 09:17:00 10° NNW 09:18:58 18° NW 09:18:58 18° NW visible
07 Oct 4.5 08:38:45 10° N 08:40:56 25° N 08:40:56 25° N visible
08 Oct 5.0 08:01:08 10° NNE 08:02:53 22° NNE 08:02:53 22° NNE visible
08 Oct 5.0 09:42:15 10° NW 09:43:01 12° NW 09:43:01 12° NW visible
09 Oct 5.8 07:24:07 10° NE 07:24:50 13° NE 07:24:50 13° NE visible
09 Oct 4.7 09:03:09 10° N 09:04:58 19° NNW 09:04:58 19° NNW visible
10 Oct 4.8 08:25:09 10° N 08:26:55 22° N 08:26:55 22° N visible
11 Oct 5.4 07:47:44 10° NNE 07:48:51 17° NNE 07:48:51 17° NNE visible
11 Oct 5.0 09:27:57 10° NNW 09:28:59 13° NW 09:28:59 13° NW visible
12 Oct 4.8 08:49:24 10° N 08:50:55 19° NNW 08:50:55 19° NNW visible
13 Oct 5.2 08:11:36 10° NNE 08:12:52 18° NNE 08:12:52 18° NNE visible
14 Oct 5.8 07:34:23 10° NNE 07:34:47 12° NNE 07:34:47 12° NNE visible
14 Oct 5.0 09:13:56 10° NNW 09:14:56 14° NNW 09:14:56 14° NNW visible
